Theta_e
302 300 297 296 298 300 300 300 297 295 297 297 297 297 294 295 296 298 297 297 296 296 297 299 299 299 300 302 303 305 303 300 300 301 302 303 303 303 303 303 304 305 305 309 308 307 306 306 308 309 309 309 309 309 309 309 309 309 307 306 305 305 305 304 303 304 305 304 302 303 303 302 301 300 299 299 300 301 302 302 303 303 304 306 308 309
302 298 298 300 298 299 299 297 296 296 297 296 296 295 295 295 294 298 297 297 298 296 297 299 298 298 299 301 303 304 303 301 301 301 302 303 304 305 305 305 305 305 308 305 304 304 305 305 307 308 308 308 307 308 308 309 308 308 307 307 306 304 305 306 306 305 307 307 308 305 301 300 299 299 300 298 298 298 298 299 300 301 303 305 306 307
297 295 299 300 297 297 297 296 297 297 296 297 296 296 294 296 297 299 297 296 297 295 295 298 296 298 300 302 303 303 303 304 304 304 304 305 305 305 305 306 306 305 305 304 303 303 303 305 305 307 308 308 308 308 308 309 308 307 306 307 305 305 305 305 305 305 305 304 302 301 299 299 296 296 297 297 296 297 297 298 299 299 301 302 303 305
294 297 300 297 298 297 294 295 296 296 297 297 295 294 293 297 293 293 297 296 295 296 297 296 294 297 300 302 302 304 304 305 306 305 305 305 305 306 307 307 306 305 305 304 303 302 302 303 304 306 307 307 308 308 307 308 308 306 306 306 304 304 305 304 305 303 302 300 299 298 297 296 297 295 294 294 296 297 298 297 297 298 298 300 301 302
295 298 295 296 298 298 295 295 296 296 295 297 298 296 295 295 296 294 295 296 296 295 294 296 296 297 300 300 301 304 304 303 304 305 305 305 305 306 308 308 308 306 306 305 303 302 301 302 303 304 306 308 307 307 307 308 307 305 305 305 304 304 304 305 302 300 299 297 296 296 295 295 294 295 294 294 294 296 295 296 297 296 296 297 297 298
297 296 297 296 297 297 296 294 297 298 294 297 298 297 297 298 296 296 295 295 296 296 296 294 290 293 299 300 301 304 301 301 303 302 303 304 305 305 303 304 306 307 307 306 304 303 302 302 303 304 306 307 307 306 307 308 307 306 306 305 304 304 303 303 301 299 298 297 295 295 295 294 295 294 294 295 296 296 297 297 295 295 294 294 294 294
297 294 298 297 296 297 297 297 298 299 295 294 295 297 298 297 296 296 294 295 291 290 295 295 290 287 297 296 300 301 301 302 304 304 303 304 305 306 305 306 306 305 305 305 305 304 302 302 302 303 305 307 306 307 308 308 307 306 306 305 305 303 302 301 299 297 297 296 296 297 300 300 299 298 299 300 299 298 296 295 294 293 292 292 293 292
295 295 295 298 297 297 295 294 297 297 296 293 295 294 295 296 295 296 295 295 294 295 297 294 296 290 290 297 301 301 300 301 302 303 305 306 306 305 306 306 306 306 305 305 304 304 303 302 302 302 305 306 306 307 307 307 307 306 304 304 303 302 300 299 298 297 298 297 297 300 303 303 304 305 302 298 296 295 294 293 293 293 291 291 292 292
296 295 295 295 296 295 295 297 299 299 296 295 293 296 296 297 297 295 296 295 293 291 290 293 295 290 290 295 297 300 298 299 301 303 305 306 308 308 308 307 306 306 306 305 304 303 302 302 302 303 305 307 307 307 306 306 307 307 304 302 302 300 298 297 298 298 298 299 300 302 302 302 302 299 296 294 294 293 293 293 292 292 291 291 291 292
294 297 298 300 297 295 296 291 296 299 296 292 294 295 295 296 295 296 295 295 293 291 288 292 294 288 289 297 296 297 298 298 300 303 304 307 308 308 306 307 306 305 304 303 303 303 303 303 303 304 305 306 306 307 307 306 306 306 303 301 301 299 298 297 297 298 298 299 299 300 299 299 296 294 292 293 292 292 293 292 292 291 291 290 290 291
294 295 295 296 297 298 293 292 292 296 296 296 298 299 297 296 296 295 295 294 292 287 289 295 295 292 286 295 296 294 298 300 302 303 305 307 308 307 305 305 307 302 301 301 301 301 302 302 302 303 304 306 306 306 305 305 305 304 302 301 300 299 299 298 297 297 297 298 298 298 298 296 294 292 291 291 291 291 292 292 291 291 291 290 290 290
296 295 296 297 294 294 298 294 295 293 296 298 298 297 296 293 293 293 292 292 287 285 290 291 294 295 285 291 297 300 299 299 301 303 304 305 307 308 306 304 302 299 299 299 299 299 300 300 301 302 303 305 305 304 304 304 304 302 302 301 299 299 298 297 296 296 296 296 296 296 297 296 294 292 292 292 291 291 292 292 290 290 290 290 290 290
294 296 296 296 296 297 299 297 295 296 295 297 297 296 289 287 287 284 288 284 285 285 288 289 290 288 288 294 298 298 300 302 301 302 304 306 306 307 306 305 300 299 298 298 299 299 299 299 299 300 302 304 303 303 302 303 303 302 301 300 299 297 297 296 296 295 295 295 296 296 296 296 295 294 295 294 294 293 293 291 291 290 290 290 290 290
293 296 295 297 297 297 300 294 292 291 294 294 294 292 288 283 283 280 284 284 283 287 287 289 292 286 293 296 300 300 302 303 304 303 304 304 305 306 307 304 298 298 298 298 299 299 299 299 300 301 302 303 303 303 302 302 301 301 301 300 299 298 296 295 295 295 295 295 296 296 296 295 294 295 296 296 295 294 294 292 291 292 291 290 291 290
286 285 292 294 293 300 298 298 298 296 294 294 300 296 291 289 285 281 283 281 283 286 286 288 286 286 287 294 302 302 303 302 303 305 306 305 305 305 305 298 297 298 298 298 298 298 299 299 300 301 302 303 303 303 302 301 301 301 301 299 299 297 296 295 295 295 295 296 296 295 295 295 294 295 295 296 296 294 294 293 293 293 292 292 291 291
289 290 294 299 296 299 297 298 301 298 295 296 297 297 292 289 292 285 287 286 284 286 286 284 287 293 293 299 299 299 299 300 300 300 301 302 303 304 302 300 299 299 299 298 298 298 298 299 300 301 302 303 303 303 302 302 301 300 300 300 299 297 295 295 294 294 295 295 295 295 294 293 293 294 295 294 294 294 295 294 293 293 292 292 291 291
287 287 292 295 295 297 297 297 298 298 288 293 294 290 293 296 295 288 283 283 282 284 283 290 288 293 298 298 299 300 300 300 301 299 299 300 302 302 301 302 302 301 299 299 298 298 298 298 299 301 302 302 302 302 302 302 301 300 300 299 299 298 296 295 294 293 293 294 293 294 294 293 292 293 293 293 292 292 293 293 293 292 292 292 291 290
288 289 290 293 292 293 292 293 298 297 299 294 289 294 295 299 298 291 285 285 285 282 284 287 286 289 290 288 296 297 297 299 299 300 301 302 302 300 302 303 304 303 300 299 298 298 298 298 298 300 302 303 302 302 302 302 302 300 300 300 300 299 296 295 294 293 293 293 293 293 293 292 292 292 293 293 292 292 291 291 291 291 290 290 290 289
296 287 290 288 291 294 295 297 297 297 297 296 294 303 293 288 286 291 288 281 281 281 284 288 288 288 291 292 296 296 296 299 300 301 301 300 301 302 303 304 305 302 299 297 297 297 297 297 298 299 301 303 303 303 303 302 302 301 300 300 301 300 298 296 295 293 293 293 293 293 292 292 291 291 291 292 291 291 290 290 290 290 290 289 289 288
295 288 288 290 292 294 295 297 289 292 296 297 297 295 297 294 290 287 288 288 287 283 283 285 287 287 297 296 298 298 299 301 302 302 300 302 303 304 305 305 303 302 299 298 297 297 297 297 297 298 300 301 302 302 302 302 302 300 299 299 299 299 298 296 294 293 292 292 293 293 292 291 291 291 291 290 290 289 289 289 289 289 288 288 288 288
293 292 286 289 292 293 289 293 291 294 290 291 293 292 293 292 294 294 292 288 287 284 284 284 283 289 297 301 299 300 300 302 302 302 304 305 305 305 304 303 302 301 300 299 298 297 296 296 297 297 299 301 302 302 302 301 301 301 299 298 298 297 296 295 294 293 292 291 292 292 291 290 290 289 290 289 289 289 289 289 288 288 288 288 287 287
290 289 286 289 288 288 293 296 296 298 298 295 293 292 293 289 288 285 284 290 287 287 284 283 283 290 298 298 302 302 303 303 304 304 306 305 304 303 302 301 301 301 300 299 298 297 296 296 296 297 298 299 300 301 301 301 301 300 299 298 298 298 297 295 294 293 292 292 292 291 290 290 289 289 288 288 288 288 288 288 288 288 288 287 287 287
297 295 290 286 289 291 293 292 288 290 294 295 295 294 297 295 294 289 284 286 286 288 286 287 284 288 300 300 303 301 300 300 302 302 302 305 306 302 299 300 300 299 298 298 297 296 296 296 296 296 296 297 298 300 300 300 300 300 300 299 297 297 296 295 294 293 293 292 291 290 289 288 288 288 287 287 287 287 287 287 287 287 287 287 286 286
295 290 288 288 292 293 293 292 292 291 294 293 294 293 295 292 294 292 290 290 288 287 286 287 283 289 297 292 297 291 289 290 293 296 303 304 306 300 298 300 299 297 297 295 295 296 295 295 295 295 295 296 297 298 299 300 300 300 300 299 298 296 296 294 293 292 291 290 289 289 288 287 287 287 287 286 287 287 287 287 286 286 286 286 286 285
290 288 289 286 286 289 290 292 292 293 293 291 292 294 296 297 297 293 289 289 288 289 288 287 283 289 296 294 293 295 293 296 298 297 295 300 303 301 298 298 298 296 295 294 294 294 294 294 293 294 295 295 296 297 299 299 300 299 299 299 298 297 295 294 293 291 290 289 288 288 288 287 287 286 286 286 286 286 286 286 286 285 285 285 285 285
291 290 288 283 281 280 280 282 284 285 288 292 292 292 295 295 295 291 288 289 285 288 288 287 288 294 295 295 296 294 292 296 298 298 295 296 299 301 299 299 297 295 296 295 294 293 293 293 294 294 294 295 295 296 297 298 299 299 298 299 299 299 295 293 293 291 289 288 287 287 287 286 286 285 285 286 286 286 285 285 285 285 285 285 285 284
288 290 291 289 287 286 288 291 294 295 291 287 290 292 293 295 296 295 293 289 287 289 289 290 291 292 296 298 295 295 292 296 300 298 297 300 298 296 296 298 298 297 296 295 294 294 293 292 292 293 293 294 294 295 296 297 297 298 298 298 298 298 296 292 291 290 289 288 288 287 286 286 285 285 286 286 286 285 285 285 284 284 284 284 284 284
287 289 291 292 292 292 294 294 295 295 291 292 291 291 293 293 293 291 289 288 293 289 286 293 295 291 293 297 299 299 296 297 297 298 300 300 299 300 299 297 293 294 294 294 293 293 292 293 293 292 293 293 293 294 295 296 297 297 297 297 297 298 297 291 289 288 288 287 287 287 286 286 286 286 286 286 285 285 284 284 284 284 284 284 284 283
289 288 292 292 292 294 295 295 295 295 296 295 294 294 292 293 292 288 289 293 295 289 287 294 296 292 295 298 300 300 301 299 300 301 302 301 300 298 295 295 295 295 295 293 293 293 293 293 293 292 292 292 293 293 293 294 295 296 297 297 298 297 297 291 289 288 287 286 286 286 286 285 285 285 285 285 284 284 284 284 284 284 284 284 284 284
290 289 292 294 291 293 294 295 296 294 294 295 295 295 295 294 293 293 292 294 294 293 295 296 295 296 298 299 302 303 304 302 303 303 299 298 299 300 298 297 297 296 295 294 294 294 294 294 293 292 292 292 292 292 292 293 294 294 295 296 297 296 294 290 289 288 287 286 286 286 286 285 284 284 284 284 283 284 284 284 284 284 283 283 283 283
292 288 294 292 289 289 293 295 295 294 290 290 293 295 295 295 294 294 294 295 294 294 296 296 294 294 300 302 302 304 304 303 303 299 299 301 302 301 300 298 297 297 297 296 296 295 295 294 294 293 292 292 292 292 292 292 293 294 294 295 295 294 294 290 289 288 288 287 287 286 286 285 284 284 284 284 283 283 283 283 284 283 283 283 283 282
291 288 290 290 287 287 290 291 291 291 290 288 289 291 292 292 290 293 291 295 293 291 293 293 290 292 298 302 303 303 303 301 300 301 301 302 302 302 301 299 298 298 298 298 297 296 294 293 293 293 292 292 292 292 292 292 292 292 292 293 294 294 293 290 289 288 288 287 287 286 285 284 284 284 284 284 283 283 283 283 283 283 282 282 281 281
289 289 288 288 285 285 290 291 290 289 287 285 286 290 293 294 295 295 296 296 296 296 291 289 290 297 300 301 300 300 301 301 301 301 303 303 304 304 303 300 299 299 300 299 297 296 295 294 293 293 293 293 292 292 292 293 292 292 292 292 293 293 290 290 289 289 288 288 287 287 286 285 285 284 284 284 284 284 284 283 283 282 282 281 281 281
288 289 288 290 284 286 288 289 289 286 279 281 293 297 296 293 294 292 292 295 297 297 295 297 298 300 300 299 299 299 300 300 302 304 306 305 305 305 305 305 302 301 301 302 300 299 297 296 295 294 294 294 294 293 293 293 292 293 293 292 291 290 290 289 289 289 288 288 287 287 286 286 285 285 285 285 284 283 283 282 282 282 282 282 281 280
288 289 288 289 285 285 288 287 284 278 281 292 297 299 299 298 297 295 296 296 297 298 298 297 298 299 300 302 302 302 303 304 304 304 304 305 306 306 306 306 305 304 304 303 302 301 299 297 296 295 294 294 294 293 292 292 292 292 291 291 290 290 289 289 289 289 289 288 287 287 286 286 286 285 285 284 284 283 282 282 282 282 281 281 281 281
287 287 287 285 286 287 285 285 278 280 288 293 296 297 298 298 298 297 295 298 298 298 299 297 298 299 300 301 302 303 303 302 301 301 302 304 306 306 305 305 306 305 304 305 305 303 300 297 296 295 295 295 294 293 292 292 292 291 291 291 290 289 288 288 288 288 289 287 287 286 286 286 285 285 285 284 283 283 282 282 282 282 282 281 282 281
294 289 288 284 288 282 285 285 284 290 289 291 293 295 294 292 293 292 288 293 299 300 299 298 299 300 300 301 302 302 301 297 296 299 302 301 302 302 303 304 306 306 306 305 304 303 302 300 297 297 296 294 294 292 291 291 291 290 290 289 289 288 288 288 288 288 288 287 287 286 286 286 286 285 284 284 283 282 282 282 282 282 282 281 281 280
296 289 289 285 284 287 284 283 284 283 280 287 295 298 298 300 300 300 294 291 299 300 302 300 299 300 300 300 300 300 300 295 294 297 302 302 302 302 302 301 300 300 301 301 301 301 300 299 298 297 296 294 292 292 291 290 290 289 288 288 288 287 287 287 288 288 288 287 287 287 287 286 286 285 284 283 282 282 283 282 282 282 281 280 279 279
295 295 292 287 285 285 283 281 281 280 284 291 292 293 294 297 300 297 291 287 297 299 300 300 299 300 300 300 299 299 295 291 293 298 303 301 303 302 302 301 299 299 300 301 301 300 298 297 296 294 293 293 291 291 290 289 289 288 287 288 287 287 287 287 288 288 287 288 287 287 287 286 285 285 284 283 283 282 282 282 281 281 281 280 280 279
288 289 289 285 284 285 284 282 281 286 286 290 291 292 293 295 300 293 284 284 295 295 298 298 298 299 299 300 300 298 294 292 294 299 302 302 302 302 300 300 299 298 298 299 297 297 297 295 292 291 291 291 291 290 289 289 288 287 287 287 287 286 286 287 288 288 289 288 287 287 286 286 285 285 284 283 283 283 283 283 281 281 280 279 280 279
285 286 287 283 285 285 285 283 286 287 292 292 291 292 291 298 296 287 282 290 294 297 298 300 299 300 300 299 300 296 298 300 302 299 294 295 296 297 297 296 296 295 296 297 296 291 293 292 293 292 291 291 290 289 288 288 287 287 287 287 286 286 287 288 288 288 288 288 287 286 286 286 285 284 284 284 283 283 283 282 281 280 278 278 278 279
285 286 286 286 284 284 285 283 283 287 291 293 290 293 296 293 285 285 292 289 292 293 293 294 298 299 300 300 300 300 301 302 301 294 296 296 296 294 293 293 293 292 290 289 289 291 291 291 291 291 290 289 288 288 287 287 286 286 287 286 285 287 288 288 288 288 287 286 286 285 285 285 285 285 284 284 283 282 281 281 281 279 278 278 278 277
286 285 282 284 286 286 285 283 282 278 288 291 291 292 293 289 291 292 292 289 289 290 291 292 296 297 296 296 297 298 299 299 299 299 299 298 296 297 294 292 292 293 292 290 289 289 290 290 289 289 288 287 287 287 287 286 285 286 285 285 286 288 288 288 287 287 286 285 285 284 284 284 284 284 283 283 283 281 280 279 278 278 278 277 277 277
292 285 284 286 289 283 283 280 281 288 289 292 295 291 291 294 292 290 291 291 291 289 292 295 294 296 296 296 296 295 295 296 296 296 295 294 294 294 292 291 291 291 290 290 290 289 287 289 288 287 286 285 286 286 286 286 285 285 285 285 288 287 287 286 286 286 285 284 284 284 283 283 283 283 283 282 281 281 279 278 278 277 277 277 277 276
290 288 290 286 290 287 285 288 290 289 289 292 293 292 289 291 289 289 289 290 291 294 291 293 297 294 293 294 293 293 293 294 294 296 295 296 296 295 293 291 289 289 289 289 289 287 287 288 286 285 284 285 285 286 286 286 285 285 284 286 287 285 285 285 284 284 284 284 283 283 283 283 283 282 282 281 281 279 278 277 277 276 276 276 277 277
289 287 287 289 289 291 292 292 291 290 289 289 291 291 291 292 290 288 288 288 291 292 291 292 292 291 291 290 290 291 292 294 293 292 291 291 291 291 289 287 288 288 288 287 286 286 286 286 285 284 283 284 285 285 286 286 286 284 285 286 285 285 285 284 284 283 283 283 283 282 282 281 281 281 280 280 280 280 278 277 276 276 276 276 276 276
289 286 286 287 289 288 285 288 288 290 290 290 291 292 291 290 290 289 289 290 290 291 291 291 290 290 290 288 289 291 292 293 292 292 291 290 289 288 287 286 287 286 285 285 286 285 284 284 283 283 282 282 284 285 285 285 286 286 285 284 285 285 284 284 284 283 283 282 282 282 281 280 280 279 279 279 279 280 279 278 277 277 275 276 276 276
285 290 286 286 286 285 286 289 288 289 289 289 288 288 290 292 292 290 290 290 290 290 288 288 288 287 289 288 290 290 291 293 292 292 291 290 289 289 287 286 286 285 285 285 285 284 284 284 284 282 283 282 283 284 285 285 285 285 284 284 284 284 284 283 283 283 282 282 281 280 280 279 275 277 278 279 279 279 278 277 277 277 276 276 277 276
289 290 283 287 285 286 288 289 289 289 288 289 289 288 290 290 290 290 290 289 287 286 287 287 287 288 288 288 289 289 289 291 291 290 290 290 288 287 287 287 287 286 286 284 284 284 284 284 284 283 283 284 284 284 284 284 283 283 283 283 283 283 283 283 282 282 281 280 279 279 279 279 277 278 278 278 278 279 278 278 278 278 278 278 279 279
288 285 288 287 283 283 283 286 288 284 284 288 289 290 291 291 289 288 288 287 287 287 288 287 287 286 285 286 287 287 286 288 289 288 287 288 288 288 287 286 285 285 285 284 284 284 285 285 285 284 284 283 283 283 283 280 280 281 282 282 282 283 282 281 281 280 279 279 279 279 279 278 278 278 277 277 277 277 277 275 278 279 279 278 278 279
286 287 287 284 283 282 288 289 289 290 290 291 293 292 290 289 288 288 288 288 288 288 287 286 286 287 287 286 285 285 286 287 288 287 286 287 287 287 287 286 285 285 284 283 283 283 285 286 285 284 284 282 282 282 281 279 278 280 280 281 282 282 282 281 280 279 278 278 278 278 278 278 278 278 278 277 277 277 276 276 277 278 279 278 278 278
Wind_Speed
4 5 5 6 9 9 8 5 3 5 5 7 4 2 1 4 7 4 2 2 1 4 13 15 15 16 18 16 16 15 4 6 10 12 13 12 11 10 10 12 13 13 13 5 8 9 11 12 11 10 9 9 10 10 11 12 9 9 8 8 8 6 7 6 6 6 7 7 5 4 4 5 4 4 4 3 3 3 2 3 4 3 3 4 5 5
2 6 6 9 5 4 5 6 8 7 2 3 3 3 3 3 8 1 1 4 1 2 6 4 10 13 14 14 16 14 10 14 14 14 16 17 14 11 13 15 15 12 3 5 6 9 11 11 13 11 10 11 12 12 12 13 10 9 9 9 8 7 7 7 7 6 6 6 6 6 5 5 5 4 4 4 4 3 3 4 3 3 4 5 5 5
5 7 8 4 7 7 6 6 4 5 5 3 3 2 2 5 5 11 3 1 2 2 11 9 14 14 12 14 15 15 16 15 14 16 18 16 13 12 13 15 12 7 9 8 9 10 11 12 13 12 11 11 12 12 12 12 11 10 9 9 8 8 7 7 6 6 5 4 3 4 5 5 4 3 3 3 4 3 4 4 3 3 3 5 5 5
4 7 3 8 6 9 5 3 6 5 2 4 4 4 6 2 1 3 3 2 2 5 6 7 16 15 14 17 21 21 19 16 12 15 17 14 16 18 18 12 9 12 11 12 12 12 12 12 13 12 12 12 12 11 12 12 12 9 9 9 9 8 8 7 6 4 5 6 7 7 6 5 3 4 4 4 3 4 5 5 3 2 1 3 5 4
5 4 2 4 6 7 7 5 7 5 5 5 6 6 4 3 6 6 3 4 3 2 1 10 14 15 11 12 10 8 6 10 16 15 15 16 16 17 11 7 10 13 11 11 11 11 12 14 16 16 14 12 13 13 13 13 12 7 11 10 10 8 8 7 6 6 7 8 7 8 8 7 7 6 4 4 3 3 3 4 4 3 2 3 4 4
5 3 6 6 3 4 7 5 7 6 5 4 6 9 8 6 7 3 2 7 6 4 3 5 9 5 3 4 6 1 1 5 8 9 15 16 15 14 16 18 12 10 9 10 12 14 14 14 13 14 15 15 14 14 13 11 11 10 10 10 10 8 8 7 9 8 7 7 8 8 7 6 4 6 5 6 8 7 7 6 4 4 3 3 4 3
1 2 2 6 7 5 5 4 4 7 4 2 1 5 10 5 2 3 1 1 4 4 2 4 5 13 5 8 8 4 3 9 7 9 13 11 10 10 12 11 10 11 10 10 10 11 14 15 16 17 17 16 15 13 12 11 11 11 10 11 10 9 8 7 9 9 7 7 7 10 10 10 9 8 6 5 5 5 4 4 5 4 3 3 4 4
4 3 5 4 7 6 5 5 6 9 3 3 2 1 2 4 5 4 3 5 7 4 4 4 4 10 15 6 9 10 13 13 13 16 15 12 10 10 9 9 9 9 11 10 13 13 14 15 17 18 18 15 14 13 14 11 11 13 11 11 11 8 7 7 8 9 8 8 7 6 6 7 7 8 8 8 6 4 5 5 5 4 4 3 3 5
5 6 7 7 4 4 7 3 5 10 5 1 1 1 4 3 2 3 2 2 1 6 6 5 4 4 11 3 2 8 7 9 13 13 15 14 10 6 6 8 9 10 11 10 9 11 13 15 15 14 15 14 13 13 15 12 11 11 11 10 10 9 8 8 10 10 9 7 8 6 5 6 3 4 5 5 5 5 5 6 5 4 4 4 4 4
2 1 6 4 7 8 3 3 2 10 6 1 5 6 6 6 5 1 2 1 2 2 9 8 9 4 20 7 5 1 5 8 11 13 16 14 7 1 6 7 7 4 2 4 7 8 10 11 12 12 12 13 13 12 13 10 10 11 10 11 11 11 9 9 10 8 9 7 4 5 5 6 6 5 5 5 5 5 5 6 6 5 5 4 4 4
1 1 2 2 5 2 6 5 2 4 5 11 6 8 5 5 3 2 3 0 2 8 8 10 16 11 12 4 7 9 7 8 10 10 10 9 9 7 7 9 4 2 2 3 5 5 7 7 10 11 13 14 13 12 13 11 11 11 11 12 13 12 9 10 10 10 9 7 6 5 6 7 8 8 8 7 6 5 6 7 7 6 5 5 5 5
2 2 3 0 3 4 4 8 7 3 3 5 3 3 4 1 2 2 0 1 3 10 2 4 7 12 14 3 4 3 1 3 6 10 11 10 9 6 3 3 2 1 1 2 4 5 7 8 10 11 13 14 14 13 14 13 11 11 11 12 13 12 11 10 10 10 9 8 7 6 7 8 9 11 9 9 10 10 9 8 7 5 5 5 5 5
4 5 2 2 3 3 5 7 5 3 2 1 4 5 4 2 1 3 2 4 8 8 2 3 1 6 20 17 1 4 8 8 10 9 8 9 9 8 5 3 1 1 1 2 4 6 7 9 12 13 14 14 15 15 16 14 11 11 11 13 14 13 12 11 11 11 10 9 9 8 8 8 8 9 10 10 9 10 9 7 7 8 7 6 6 6
3 4 2 4 2 6 8 9 5 2 6 5 9 7 5 5 4 7 2 2 5 4 1 2 3 12 8 9 17 20 19 16 8 9 11 11 14 13 6 3 2 1 2 3 5 6 7 8 10 13 14 14 15 16 16 15 12 12 12 14 14 13 12 10 11 12 11 11 10 9 8 8 7 8 8 8 9 9 8 8 9 8 8 7 7 7
6 5 8 11 6 9 10 10 7 4 12 12 3 9 6 5 3 3 4 6 6 2 1 3 0 5 0 1 5 12 6 2 5 8 8 10 11 14 3 5 2 3 5 5 6 8 9 10 11 11 13 13 15 16 16 14 12 12 13 14 15 13 12 12 12 11 12 11 10 9 8 7 7 7 7 7 7 8 8 8 8 7 7 7 7 7
9 4 3 6 4 11 12 1 5 7 3 3 0 3 2 7 4 9 2 2 2 4 3 5 7 2 5 4 3 2 3 8 6 8 8 10 13 11 4 5 7 8 7 6 7 8 10 10 11 11 12 14 15 17 16 17 14 13 13 14 15 14 13 13 12 11 11 11 9 9 9 8 7 6 5 5 5 6 6 8 8 8 7 6 7 6
4 6 3 1 2 6 3 1 2 3 8 7 6 7 5 5 3 1 2 4 1 1 12 3 10 9 9 16 17 18 14 14 8 6 7 13 13 4 8 8 8 7 8 8 9 8 10 10 11 12 13 14 16 16 16 17 16 16 14 14 15 14 12 13 13 10 9 9 9 9 9 8 7 7 8 7 8 7 5 5 5 6 6 6 6 6
3 1 2 3 7 1 2 2 3 5 1 9 6 7 4 1 5 3 7 1 1 6 7 4 9 14 1 13 7 4 6 9 9 14 16 14 4 9 10 10 8 8 8 8 7 7 9 11 12 12 12 14 15 16 16 17 15 14 14 15 16 15 15 14 13 11 11 10 10 9 10 9 8 7 7 7 8 7 7 5 4 4 5 6 6 6
2 4 3 3 3 2 1 3 3 2 5 2 1 5 8 6 6 5 0 7 4 7 7 4 5 14 12 16 4 5 6 5 10 12 8 10 10 12 13 12 9 5 5 6 8 8 9 10 11 13 13 14 14 14 14 14 14 13 14 14 15 15 15 14 11 11 9 10 8 7 9 9 8 7 6 5 6 6 7 7 6 6 5 5 7 7
2 6 2 2 2 2 2 6 10 7 1 2 2 4 4 3 1 7 7 1 0 7 0 7 2 15 7 6 4 10 11 11 12 6 8 9 10 8 6 6 5 5 6 6 7 8 9 10 12 13 14 15 14 14 13 14 13 15 14 15 14 12 12 13 13 11 11 9 9 8 7 7 7 7 7 7 7 7 7 7 7 8 7 8 7 7
4 1 5 4 4 2 6 9 11 14 11 5 6 7 4 2 3 3 1 2 3 3 4 6 12 13 3 9 7 9 11 12 10 9 7 5 7 7 4 4 5 5 5 6 7 8 9 10 11 12 12 11 12 13 12 13 15 14 13 14 14 14 14 14 13 11 9 8 9 10 10 8 7 8 6 7 7 7 7 7 7 7 8 8 7 8
2 5 8 6 4 9 3 2 3 5 9 11 16 15 17 11 7 6 6 3 1 3 6 3 13 17 2 2 8 7 8 9 8 8 5 3 5 3 2 3 4 4 5 5 5 6 7 9 10 10 10 9 11 15 15 14 13 14 14 13 13 12 12 13 12 11 11 9 9 11 9 9 8 7 7 8 8 7 7 7 7 8 7 9 8 8
6 2 2 5 8 7 2 2 1 3 4 3 2 4 8 9 8 6 8 6 1 4 3 2 5 21 0 5 5 3 4 3 3 4 4 5 6 4 3 5 4 4 3 3 5 6 7 9 10 11 13 13 13 14 15 16 14 13 15 14 13 13 13 12 11 10 9 9 9 10 8 8 8 8 8 9 7 8 7 7 7 7 8 7 7 7
5 3 3 4 4 1 1 1 2 0 2 2 2 1 6 11 13 10 4 2 6 3 6 5 4 19 2 4 4 2 1 1 1 3 6 3 5 1 3 4 4 3 4 2 3 4 6 7 9 9 12 13 13 15 17 16 14 14 14 14 13 14 13 12 10 10 10 9 9 10 9 9 8 10 9 9 8 9 8 7 7 6 7 6 6 7
5 3 5 3 3 2 2 1 3 2 2 3 4 7 11 11 10 3 3 1 4 11 13 8 12 19 1 2 3 1 2 2 4 6 6 6 6 3 3 6 1 2 2 3 4 6 7 9 11 12 12 13 13 13 14 16 17 16 15 14 14 14 12 11 10 10 10 10 11 11 10 11 10 10 10 10 8 10 9 9 8 7 7 7 7 6
5 7 9 8 10 11 10 10 11 7 9 7 4 8 9 12 16 6 7 7 7 14 15 9 13 21 4 2 5 1 0 4 7 4 3 6 9 6 4 4 3 2 3 4 5 7 9 10 9 10 11 11 12 13 13 15 17 15 13 14 12 12 11 11 10 11 11 10 11 11 12 11 11 11 12 11 10 11 10 9 9 9 8 8 9 7
2 2 9 12 13 14 15 6 5 11 8 8 12 15 17 16 16 13 6 8 16 13 6 15 22 24 18 11 5 5 3 7 7 5 7 9 8 6 7 6 4 4 5 6 7 7 6 9 13 13 12 12 12 12 12 13 13 13 13 14 14 13 11 10 10 11 11 11 12 11 12 11 11 11 11 11 10 10 10 10 10 10 10 9 9 9
2 3 11 15 19 20 18 17 7 14 13 16 16 16 18 16 18 15 14 20 21 4 15 18 19 17 26 24 15 10 7 7 5 7 8 6 7 6 5 4 4 5 5 5 7 9 11 11 11 12 13 13 13 12 12 12 12 13 14 14 14 14 11 8 10 11 11 12 12 11 12 11 11 11 11 10 10 10 10 10 10 10 9 10 10 10
6 8 10 13 16 19 20 20 11 13 13 13 16 16 19 19 17 19 23 25 16 13 19 22 17 18 21 24 17 18 10 10 10 11 8 4 2 4 5 5 7 8 6 7 10 10 12 13 12 13 13 13 13 14 15 12 12 12 12 13 14 13 12 11 11 11 11 11 11 11 10 9 9 9 9 9 10 10 11 10 10 10 10 10 9 8
3 7 10 13 16 19 21 22 13 13 14 11 12 16 16 20 24 25 25 25 21 18 19 21 24 22 22 28 11 9 9 12 14 6 2 5 10 9 7 8 8 7 9 11 12 13 12 13 11 12 12 13 15 15 15 15 15 15 14 14 14 13 9 11 11 12 12 12 11 10 10 10 8 9 9 10 10 10 11 10 10 10 10 10 10 9
5 7 11 7 7 13 20 19 18 12 5 11 8 7 14 18 22 27 22 19 19 19 21 24 26 23 24 17 15 18 15 9 10 8 11 10 10 12 13 8 7 9 11 10 10 11 12 10 10 11 13 15 16 18 17 16 15 13 14 13 13 12 12 11 11 11 12 12 10 10 10 10 9 10 11 10 10 9 10 11 10 10 9 9 9 10
5 4 1 1 8 12 15 16 16 10 2 7 12 15 17 22 25 14 11 15 17 22 22 20 18 21 23 16 17 16 12 8 12 12 11 12 16 16 13 9 9 10 10 12 10 10 9 11 12 14 15 16 16 17 16 15 15 14 16 15 15 14 12 13 13 12 11 11 11 11 11 10 10 11 11 11 11 10 9 8 8 9 8 7 7 7
5 5 7 7 12 13 19 17 13 8 4 9 16 25 28 21 11 10 17 21 22 19 15 14 19 20 21 23 19 18 15 14 14 16 17 17 18 17 13 11 12 11 11 11 10 11 12 13 14 16 15 13 13 15 18 16 14 17 17 15 15 12 13 15 14 13 12 12 13 12 11 11 11 12 10 11 8 8 7 6 6 6 7 7 7 7
5 9 9 6 8 9 18 14 5 7 15 16 20 28 25 21 21 20 20 22 21 17 16 18 17 20 25 22 20 18 16 14 16 16 15 15 14 16 17 14 12 13 13 11 11 12 10 8 9 12 13 14 15 16 14 15 17 15 11 11 11 13 14 15 15 14 13 12 12 12 12 12 11 10 10 8 8 8 8 8 9 8 7 8 7 9
6 7 8 4 4 9 11 2 4 16 16 19 15 9 16 18 22 25 27 23 18 18 17 20 22 25 26 17 15 17 13 13 14 18 18 17 17 15 16 17 16 15 14 17 15 12 12 12 11 11 11 11 13 11 11 12 12 10 11 12 13 13 14 14 15 14 13 13 13 12 12 11 11 10 9 8 9 9 9 9 7 8 7 8 9 10
8 10 3 4 3 2 1 7 10 10 5 5 6 13 8 11 11 12 16 19 22 23 22 23 26 28 26 21 19 18 16 16 12 15 18 17 15 15 19 17 19 17 16 12 13 12 12 12 14 15 15 12 8 10 12 13 13 12 13 13 14 13 14 14 13 14 13 13 13 13 13 12 10 10 9 10 9 9 9 9 9 10 8 7 6 6
15 7 5 6 6 10 7 11 16 7 14 10 11 13 9 9 9 13 16 17 19 20 20 21 24 25 23 14 21 20 13 5 12 18 22 10 14 16 19 21 19 14 10 9 9 12 12 12 10 10 5 6 9 10 12 11 11 12 11 12 13 13 13 12 13 13 14 14 13 13 13 13 12 10 10 10 10 11 10 10 10 8 7 8 8 8
14 14 7 12 6 11 12 10 7 9 13 15 22 10 6 6 7 9 11 13 13 16 16 17 22 24 20 19 20 19 2 10 16 19 11 10 19 22 20 14 9 7 8 10 8 8 7 7 7 6 9 9 10 11 9 10 11 12 11 13 12 13 13 14 15 13 13 14 13 13 13 12 10 13 12 13 15 14 9 7 5 7 8 9 10 9
13 15 13 14 7 7 10 12 11 10 12 8 10 4 4 5 11 6 1 12 13 20 12 15 18 16 18 20 21 12 5 11 16 16 5 12 13 12 14 15 13 11 10 11 12 12 10 7 6 7 7 9 10 11 10 12 13 12 12 12 13 14 15 16 16 14 14 13 13 12 11 10 13 10 13 14 13 12 12 12 10 7 6 7 8 9
9 10 9 12 10 12 11 10 10 5 9 5 3 2 2 2 10 8 7 9 10 3 10 14 15 17 19 19 18 11 10 12 13 16 7 7 7 8 10 11 10 10 12 9 5 5 1 5 6 7 9 11 11 10 12 12 13 13 13 13 12 13 15 16 15 13 12 10 10 9 10 10 13 13 13 14 12 11 10 6 7 7 8 8 6 5
6 6 8 16 14 13 16 11 9 7 4 6 3 2 3 2 8 9 15 6 4 6 4 9 14 15 16 16 12 8 14 16 16 3 3 3 2 4 4 4 4 3 6 6 6 4 4 5 8 9 10 9 9 10 11 11 10 13 13 11 12 15 15 12 10 11 11 10 9 8 10 8 11 14 12 11 10 8 7 8 8 8 10 9 7 7
4 4 4 8 13 13 12 12 12 8 4 3 1 3 6 7 6 11 2 0 0 2 4 3 7 9 7 9 6 7 11 10 10 1 6 3 2 3 2 3 3 3 2 2 2 5 4 4 5 4 4 5 8 9 10 11 14 11 11 11 13 14 9 10 10 10 9 11 11 12 12 12 11 11 10 10 9 9 8 6 8 10 9 6 8 10
7 6 7 8 6 7 6 10 7 10 0 6 7 2 3 5 4 0 2 2 2 3 3 4 5 7 1 8 8 8 10 10 9 8 9 8 7 8 6 6 7 8 6 3 3 5 5 5 6 6 6 6 8 9 8 12 13 10 10 10 12 10 10 9 10 9 10 11 12 12 12 12 13 11 9 9 9 12 10 9 9 9 8 9 9 9
8 7 4 7 7 5 8 8 7 3 4 9 11 6 5 9 5 4 2 4 1 3 3 2 3 5 5 6 8 7 8 9 9 9 8 8 10 9 5 4 4 3 3 4 3 4 3 5 4 5 5 7 7 7 8 12 12 11 12 11 10 8 6 8 10 10 11 10 11 11 10 11 11 9 7 8 8 8 10 9 7 7 7 7 8 7
8 13 7 9 5 8 7 5 0 3 2 3 5 6 6 7 7 6 6 5 6 6 1 4 6 4 3 5 5 6 7 8 11 8 6 9 8 7 6 3 5 5 4 5 5 4 3 5 6 5 5 7 7 8 9 10 13 12 14 8 8 10 11 12 11 11 11 11 10 9 9 7 6 7 7 8 8 9 8 11 10 7 5 6 6 6
7 3 4 1 6 4 3 2 3 3 3 7 3 3 6 8 5 2 5 9 7 4 4 6 7 6 5 3 5 7 7 7 6 7 7 7 7 8 6 5 2 3 4 3 2 3 2 3 4 5 6 6 8 7 8 8 10 16 12 9 10 10 12 12 13 12 12 11 9 10 11 12 8 8 10 11 8 8 6 8 8 7 7 7 6 6
3 3 2 1 4 2 6 8 8 8 8 6 7 6 3 4 5 4 7 7 9 8 7 6 6 7 7 4 6 9 11 9 7 8 6 7 8 9 7 7 5 3 5 4 4 5 4 5 6 7 7 8 6 6 6 8 7 5 5 10 8 10 11 12 12 12 10 9 8 8 8 9 8 7 7 7 5 6 7 7 6 6 7 6 7 6
5 2 2 2 2 3 5 7 7 7 5 7 4 5 8 9 9 6 6 8 8 8 6 7 4 7 5 7 8 8 11 9 10 12 9 8 8 7 7 7 6 4 3 2 3 4 4 7 7 7 9 8 7 6 4 4 5 5 8 7 8 9 11 12 13 10 9 9 8 8 8 6 10 9 7 7 7 8 7 5 6 8 8 9 9 8
2 1 2 1 1 4 6 9 11 3 3 4 5 5 6 6 7 11 9 8 7 9 10 9 4 6 5 9 8 7 10 12 9 9 10 9 7 8 6 5 5 5 4 5 6 5 4 5 7 7 6 6 6 5 6 5 6 7 9 8 8 10 11 10 10 9 10 9 6 7 6 6 7 7 7 7 6 3 5 8 9 8 5 2 4 7
1 6 4 3 5 5 5 5 1 5 8 3 3 6 6 5 5 8 8 8 8 9 9 10 11 6 6 7 6 5 7 9 8 6 8 7 7 6 4 4 4 3 4 3 4 5 5 5 5 6 7 5 5 5 6 7 6 5 6 7 8 10 11 11 10 9 8 7 7 7 8 7 6 6 6 6 6 6 2 3 2 0 3 5 6 7
5 5 6 5 5 5 5 5 2 5 8 10 9 5 5 5 3 7 9 8 7 6 6 6 8 9 8 8 5 7 9 8 8 4 7 7 6 5 4 5 5 5 5 4 6 7 6 5 5 5 5 5 6 5 6 6 7 7 8 9 10 11 11 12 10 7 7 7 6 8 7 7 7 6 5 5 5 5 5 3 2 6 5 1 5 8
Wind_Direction
313 174 194 198 221 202 189 194 66 90 87 91 93 157 225 258 273 251 258 74 157 280 250 251 253 256 264 267 271 273 182 237 250 253 253 246 238 230 229 230 229 226 230 163 170 170 181 184 186 188 187 188 189 194 192 194 188 180 174 167 168 164 158 156 155 159 152 146 131 129 144 134 134 129 127 119 98 77 58 64 88 93 110 116 124 135
251 214 215 226 66 105 162 118 117 95 81 156 152 212 203 189 263 286 274 82 128 242 280 239 265 258 257 263 265 268 254 251 243 246 248 249 238 233 231 235 231 230 158 139 179 182 181 186 185 185 188 185 188 194 191 196 183 180 177 177 169 165 171 176 172 163 165 163 162 157 157 135 134 144 145 127 109 94 82 76 96 114 120 132 137 143
201 206 229 107 99 86 102 139 154 169 144 131 235 165 266 246 266 272 294 325 204 215 270 284 281 273 264 259 263 258 253 251 239 235 246 249 245 235 233 235 235 208 221 192 206 187 191 187 186 188 191 190 196 190 190 192 180 182 181 182 170 171 174 176 170 166 164 140 98 124 133 138 116 52 51 75 96 108 104 92 80 85 121 141 138 143
216 233 268 123 134 112 81 134 139 120 159 183 174 190 237 78 311 288 127 66 143 222 312 322 294 280 263 252 249 246 242 249 248 242 247 245 251 249 244 234 221 228 221 205 199 194 187 187 187 190 192 192 191 190 191 188 185 178 183 182 175 172 175 173 169 145 116 104 99 89 96 80 80 125 102 95 93 104 115 113 96 100 128 134 128 134
192 59 12 168 166 159 136 150 159 176 209 210 217 224 234 202 219 233 334 318 187 252 316 293 279 274 230 240 243 251 262 255 257 257 254 247 240 248 263 268 237 237 220 212 194 189 184 187 193 193 191 186 191 194 194 187 183 174 178 177 175 173 176 170 147 137 130 118 108 104 94 91 93 90 113 121 122 132 125 130 145 132 107 98 107 114
248 73 118 129 123 106 120 164 196 187 237 206 211 221 236 229 254 215 359 332 290 261 80 348 315 280 120 222 250 242 239 249 246 246 249 248 243 238 244 247 243 227 227 219 201 191 187 190 189 193 192 192 192 196 196 184 178 168 175 177 177 172 172 161 157 149 149 151 143 142 140 146 146 143 164 171 167 168 170 164 128 106 100 92 101 101
261 95 211 152 152 142 171 190 201 208 232 253 225 213 238 243 256 273 250 314 263 262 102 316 354 292 193 232 219 200 236 258 259 236 251 250 242 235 236 244 236 230 224 217 217 186 185 190 190 194 194 193 191 192 189 181 172 169 174 178 176 172 165 160 159 157 155 156 168 167 165 162 165 161 179 165 154 157 137 131 137 131 114 104 122 112
136 148 109 115 125 156 164 209 201 193 186 235 63 152 149 176 210 226 214 231 272 355 275 163 235 287 290 221 222 227 243 255 265 267 265 251 236 229 235 237 235 228 221 208 207 198 192 187 190 192 194 191 189 182 189 179 173 173 175 176 178 170 163 157 158 168 170 163 177 184 172 168 175 176 163 157 148 126 135 136 135 143 122 114 123 127
186 160 174 157 173 159 203 196 120 183 193 44 106 209 132 156 145 149 198 231 312 347 286 140 139 267 268 91 27 191 216 237 250 258 266 269 260 257 254 242 231 228 224 212 200 197 191 190 193 191 188 188 180 183 193 181 172 169 170 171 172 167 162 163 168 174 180 181 178 180 169 173 138 93 108 122 127 136 146 141 140 136 125 124 113 117
334 222 202 186 168 206 116 4 210 173 192 181 132 93 92 88 79 131 145 135 234 303 261 143 179 248 276 150 141 224 214 228 236 242 254 265 286 299 266 256 239 234 211 214 220 200 193 190 187 187 182 179 180 186 192 178 171 168 166 172 173 169 171 168 172 175 178 185 181 173 181 164 142 129 121 132 139 147 157 149 145 141 146 144 135 125
20 226 337 199 220 56 109 50 22 357 42 131 170 111 96 79 86 91 63 83 291 250 257 168 186 211 281 134 158 167 190 207 220 238 259 276 281 260 244 253 247 220 204 202 203 196 182 174 173 175 180 177 176 183 189 178 175 167 169 173 178 175 172 171 172 173 178 179 188 188 179 165 151 149 151 144 152 159 163 160 156 157 152 154 144 143
129 75 169 280 51 116 102 88 42 49 124 157 154 143 136 118 151 183 150 191 239 264 97 1 206 213 243 213 205 166 30 269 239 236 244 259 268 269 253 261 250 207 208 185 179 174 166 158 170 176 182 179 180 187 191 189 178 171 172 175 180 177 175 170 170 175 177 178 189 192 179 174 167 159 164 164 165 172 172 166 158 154 153 152 146 150
236 205 114 79 263 159 152 100 69 65 273 246 139 159 186 220 48 230 172 218 199 247 93 15 83 292 238 243 9 251 257 237 225 240 252 264 276 271 239 240 37 61 134 189 190 180 182 182 179 184 186 180 186 193 192 188 178 172 177 178 180 184 177 173 171 178 179 183 189 188 182 179 173 179 171 168 167 169 169 166 160 163 164 157 161 167
231 79 177 150 119 237 194 173 143 168 204 196 184 172 185 227 217 256 203 321 310 280 19 119 83 253 297 283 228 243 238 234 221 224 243 249 261 268 262 120 78 17 239 211 202 195 191 186 184 184 183 183 187 192 193 189 178 177 181 182 187 186 178 174 178 179 182 191 191 187 182 179 178 184 177 173 168 172 170 167 166 171 167 167 171 164
225 228 210 145 221 157 207 224 172 150 164 203 198 186 214 187 184 226 197 234 257 307 49 227 178 246 111 103 190 226 242 7 249 248 239 250 256 263 286 78 63 241 225 212 207 201 191 190 186 185 185 184 190 191 192 190 181 182 184 183 187 183 180 178 181 182 186 189 190 183 182 178 182 185 182 177 172 171 168 170 167 171 166 168 162 163
229 282 49 171 4 145 190 136 91 94 88 178 325 9 288 228 77 257 341 295 348 319 265 167 228 301 238 41 269 248 293 260 230 244 259 263 258 253 309 261 238 223 213 203 210 203 198 189 185 186 187 186 191 194 193 189 185 186 188 185 186 184 178 180 181 186 185 187 184 181 181 184 187 185 176 172 168 177 176 169 170 169 170 163 149 136
62 236 68 329 52 193 160 84 172 177 209 165 148 215 195 9 213 58 108 84 111 234 258 137 268 251 285 260 220 232 228 237 222 228 239 245 252 329 275 263 239 219 209 203 200 197 191 187 190 190 188 188 194 194 191 188 187 186 183 182 186 183 178 183 185 185 183 179 176 182 181 180 185 186 182 179 177 177 171 168 169 165 162 136 137 132
174 157 359 132 199 300 45 290 81 18 43 104 211 203 82 104 0 195 247 135 196 252 275 137 259 284 258 290 76 100 213 243 237 238 233 240 256 258 253 247 240 225 215 205 200 198 192 191 190 190 193 194 193 193 190 188 186 185 187 185 186 183 182 185 182 184 187 182 181 183 183 181 185 186 186 184 174 169 166 169 161 149 146 155 139 136
141 251 146 336 5 77 272 185 108 54 351 278 323 136 171 200 208 184 216 248 213 241 279 232 258 266 220 250 143 142 165 203 222 221 226 253 248 248 256 252 239 210 210 200 202 198 193 193 192 193 193 193 193 194 192 187 184 182 188 189 191 188 186 183 180 181 184 185 178 177 182 179 180 184 183 178 167 161 166 169 169 162 152 133 142 148
191 223 178 317 155 57 217 188 203 168 189 46 102 195 7 329 250 158 208 315 233 272 339 272 132 275 210 214 165 222 195 219 231 213 223 231 234 236 245 269 268 233 219 208 199 200 199 194 193 192 193 193 191 189 189 188 186 186 188 186 191 186 182 182 183 181 182 181 182 175 173 178 180 178 176 174 169 169 175 171 165 159 155 160 159 158
195 76 257 105 308 188 187 199 210 163 177 178 199 196 171 213 341 329 0 208 233 250 250 292 296 257 266 143 170 191 194 217 207 228 228 218 246 236 228 253 263 254 225 211 203 197 197 195 190 192 193 196 196 195 189 190 192 188 184 188 189 186 184 186 187 181 180 172 183 175 179 175 173 174 172 167 172 175 173 165 164 169 163 154 169 161
188 153 225 127 189 211 227 36 308 220 194 183 185 193 184 157 175 174 224 105 224 220 238 207 253 280 218 40 159 193 189 211 185 211 220 204 246 270 297 262 252 245 233 222 207 195 194 193 189 188 189 190 193 200 197 198 194 190 191 191 190 190 191 185 182 181 181 178 178 178 174 174 173 174 171 170 173 180 175 166 171 168 159 169 167 169
187 111 179 185 209 205 90 7 252 331 350 28 302 243 176 189 182 183 222 193 191 236 14 267 351 271 179 156 155 190 171 193 117 164 221 249 243 226 215 246 257 264 255 220 199 196 194 190 189 190 190 192 197 200 201 203 198 194 195 188 189 190 191 183 180 178 178 175 174 173 168 164 169 168 170 173 177 182 174 172 173 167 170 172 165 171
92 185 202 237 70 9 109 134 92 41 21 297 228 1 191 199 197 201 226 126 183 152 226 219 210 265 105 342 80 104 94 3 334 197 228 220 250 159 246 225 224 258 265 230 195 198 196 187 185 184 188 193 195 199 205 205 202 201 198 195 190 193 187 180 178 178 176 171 171 168 166 170 168 170 173 178 181 178 172 169 170 162 170 170 162 170
159 227 202 220 242 184 188 171 205 86 191 228 206 188 210 209 207 36 78 176 241 208 219 177 234 261 91 29 0 57 80 235 220 218 234 264 274 258 252 275 270 196 215 227 211 206 196 190 195 195 192 195 193 195 200 203 204 204 198 196 195 193 183 178 174 174 176 170 168 171 175 174 170 172 176 180 178 178 172 171 165 162 172 167 165 172
172 163 168 198 216 231 219 206 207 182 197 206 220 216 195 197 201 147 230 213 231 240 211 219 245 253 117 175 173 85 321 257 240 245 262 237 256 262 206 231 223 203 229 220 208 207 208 204 203 199 195 195 196 193 193 199 203 202 196 198 192 192 173 179 173 177 171 172 172 175 178 174 173 178 179 180 179 177 173 171 169 167 171 170 169 170
172 221 191 191 212 230 240 255 62 129 130 183 211 191 199 207 204 202 218 219 224 236 209 217 231 259 271 238 151 196 239 231 242 217 223 245 243 235 255 241 218 198 191 214 221 219 218 212 209 202 195 194 195 196 195 194 195 195 196 195 193 196 184 172 171 175 175 175 178 176 181 175 175 175 178 180 178 173 172 173 171 171 173 171 175 175
81 201 216 215 216 234 246 250 170 158 177 204 199 199 201 192 199 202 205 228 225 230 251 238 233 251 261 260 247 239 203 250 259 258 255 243 252 243 223 222 222 238 214 189 214 217 219 223 215 203 196 193 195 193 199 200 196 194 194 194 194 196 185 162 173 172 176 178 183 182 179 175 174 177 178 177 174 172 173 173 172 174 171 170 178 180
163 217 220 223 237 238 243 249 188 193 192 193 200 194 197 198 198 204 221 231 217 215 235 253 236 238 256 264 247 248 235 199 222 229 221 265 264 220 219 211 213 209 205 212 217 215 218 215 213 202 193 194 191 195 198 198 198 198 198 196 196 192 192 163 171 174 176 180 185 182 171 164 168 172 172 170 172 173 175 176 174 172 172 174 178 178
154 234 224 218 234 241 247 251 233 196 230 223 206 207 196 191 199 207 219 223 221 228 242 257 260 251 253 259 257 249 230 203 230 239 108 202 230 210 215 214 210 211 202 212 217 214 213 215 211 202 190 188 194 195 196 197 198 198 194 195 194 194 176 163 177 177 180 184 184 172 168 167 163 169 168 171 176 178 175 175 173 172 174 176 178 172
160 232 229 238 251 249 250 251 250 226 221 258 252 223 222 212 208 208 213 222 225 238 241 244 253 265 255 255 278 267 269 253 244 205 219 222 230 228 217 210 209 214 220 216 221 216 212 210 205 199 198 195 194 197 197 199 197 191 192 192 192 184 181 172 181 183 182 184 177 168 169 171 172 170 175 178 176 174 172 173 172 174 172 169 170 171
160 262 48 126 246 252 253 250 248 255 225 252 258 246 229 225 233 219 228 222 220 229 235 248 257 255 264 256 252 270 268 211 217 221 233 237 235 232 227 213 212 221 217 220 212 211 209 204 200 203 206 199 196 196 196 195 191 186 193 190 188 184 175 174 186 186 182 180 173 173 172 171 169 176 182 177 179 172 171 168 168 170 167 159 159 165
179 192 220 208 237 239 251 242 251 244 224 251 248 243 237 234 229 215 220 225 228 226 235 230 239 245 253 261 262 258 256 253 237 234 238 240 244 245 232 213 222 225 226 218 211 209 209 203 202 205 208 199 193 196 202 192 182 194 195 186 183 167 164 180 186 186 183 180 177 179 176 171 171 179 178 179 173 168 162 161 158 157 156 165 163 154
169 202 221 203 235 239 249 257 234 232 229 226 229 234 235 234 223 222 229 224 222 210 225 230 244 250 253 255 258 262 254 238 244 244 238 242 246 248 251 241 213 221 230 228 220 218 210 204 210 213 211 200 197 199 194 186 191 193 181 174 164 170 176 177 183 185 183 176 178 178 177 174 174 175 178 170 163 166 167 171 181 175 171 167 159 176
205 211 229 202 229 231 253 241 201 227 233 233 249 266 246 240 236 231 236 237 236 227 234 251 254 255 256 257 254 260 263 257 244 250 247 239 245 254 257 254 244 229 224 231 234 218 208 207 209 215 218 217 207 189 175 190 191 174 164 166 173 179 177 183 180 182 181 179 181 177 176 170 174 173 168 161 167 169 175 176 168 166 172 173 178 180
194 205 166 221 202 270 259 219 243 228 243 338 277 244 255 252 250 255 255 246 241 236 228 231 239 246 251 253 256 261 267 272 287 265 252 248 248 252 252 249 249 245 240 233 231 222 205 200 205 204 211 207 172 185 188 194 186 180 184 175 177 177 182 182 183 183 178 177 179 176 175 169 172 170 169 168 169 170 177 178 174 173 171 170 178 185
214 205 192 245 171 234 220 227 243 314 306 275 271 243 188 188 185 199 236 238 235 233 228 229 237 244 246 252 260 263 252 283 272 268 250 213 243 244 245 250 254 255 248 245 229 232 213 207 205 212 186 159 182 182 189 182 171 173 168 171 178 174 179 179 186 187 183 183 178 176 175 172 168 164 167 164 163 176 178 170 178 171 163 168 177 178
204 215 180 220 206 207 235 244 245 244 245 250 242 256 91 205 206 214 227 256 252 245 226 227 239 247 254 256 253 250 201 265 267 261 264 186 223 233 240 250 260 249 227 223 229 235 210 199 200 199 196 189 187 189 174 160 161 168 170 178 176 172 180 183 192 190 183 184 177 175 175 170 164 173 174 172 183 185 180 165 160 166 168 175 181 186
213 217 206 209 217 198 216 232 235 234 242 250 279 266 236 207 182 101 178 257 247 245 232 234 239 244 248 246 247 235 180 240 250 263 245 195 229 230 235 233 216 223 223 211 217 218 203 192 184 175 175 180 187 183 164 162 165 169 179 179 178 180 183 190 190 185 182 180 175 177 167 161 173 167 174 181 185 183 178 180 180 163 154 181 185 190
212 213 214 228 220 219 229 232 233 213 254 251 294 291 272 145 119 119 224 239 258 92 185 219 224 223 237 241 243 224 183 231 249 259 278 185 233 221 209 219 218 222 235 235 252 259 236 145 143 169 185 190 192 157 157 160 171 182 180 182 175 183 192 191 188 176 172 171 165 159 166 169 176 177 178 182 178 177 178 146 147 162 169 180 176 155
202 227 216 229 231 233 234 250 258 259 255 249 204 171 91 236 155 190 229 272 172 201 247 214 219 220 229 242 233 232 223 225 238 303 80 11 308 290 283 313 314 342 279 262 240 176 198 192 193 191 190 184 158 154 159 161 164 182 186 175 180 196 195 182 164 160 162 155 153 158 168 169 177 179 180 177 172 164 157 164 162 150 169 173 173 169
211 197 230 219 232 234 235 241 241 266 250 158 283 166 164 111 214 226 253 348 261 275 258 269 262 252 264 265 267 240 250 253 273 20 270 286 243 293 345 312 311 267 274 303 286 197 207 192 200 187 162 158 147 152 159 165 178 181 173 178 196 195 170 161 156 154 162 162 166 171 176 177 178 176 172 168 158 155 160 152 153 166 167 156 154 171
172 199 193 202 218 238 230 251 242 241 317 125 123 44 279 215 233 165 302 267 233 283 294 293 224 262 184 271 260 254 266 267 262 272 278 276 261 255 227 212 228 235 240 210 223 221 195 183 191 189 165 148 153 158 160 169 178 179 176 193 194 171 163 144 151 158 165 163 166 173 176 176 174 171 168 160 158 162 159 158 160 160 162 165 167 157
168 222 189 215 186 220 206 225 230 205 168 201 164 207 199 228 9 339 28 316 285 241 287 281 253 230 233 239 268 279 269 278 288 264 269 270 256 256 219 217 237 257 260 249 254 197 185 188 171 156 146 156 158 161 163 171 173 177 185 195 175 145 124 141 156 160 161 164 168 167 170 171 169 164 157 148 150 153 143 152 143 150 160 155 156 166
176 214 190 232 162 208 221 237 72 38 45 320 333 353 343 343 5 360 329 299 298 310 328 303 331 1 284 274 275 268 284 265 257 268 247 259 280 291 291 250 216 229 222 218 220 192 198 187 164 144 150 166 163 167 171 177 175 176 188 171 136 150 157 157 158 160 162 163 161 160 157 151 152 153 146 150 154 150 149 155 158 153 151 146 162 163
8 12 5 321 264 314 271 146 121 80 56 330 297 233 298 308 311 54 345 322 287 305 330 301 309 306 333 351 304 285 244 257 269 280 281 286 287 280 287 285 222 199 201 191 169 178 186 125 122 141 154 167 173 173 177 181 179 182 185 144 153 154 158 157 157 161 162 160 150 157 157 159 145 148 159 163 170 166 155 151 156 153 156 161 168 170
314 28 18 254 348 339 239 57 22 337 319 303 310 305 266 221 261 281 284 254 271 279 272 243 267 301 310 318 256 273 289 294 294 276 265 279 278 276 274 270 258 190 185 191 181 161 150 150 158 168 165 168 185 176 181 180 185 172 128 153 152 156 153 155 157 155 156 154 146 149 156 153 158 149 146 149 143 155 160 160 157 148 152 163 167 174
302 168 80 228 195 241 279 325 317 307 270 268 257 307 322 320 308 279 236 264 280 280 271 282 297 276 244 269 258 247 268 277 274 277 275 258 251 257 249 243 239 216 198 167 161 180 168 178 185 175 175 179 181 173 162 156 151 140 142 150 150 150 150 154 162 158 150 147 148 154 155 144 153 152 150 161 161 158 159 165 164 167 175 175 176 172
218 81 245 207 233 274 273 279 285 319 280 254 253 237 241 258 290 303 309 303 290 303 300 294 225 266 270 265 279 264 272 271 263 276 279 273 258 237 236 229 219 210 187 162 167 181 209 194 191 189 183 174 162 159 160 151 130 126 136 136 150 152 152 149 146 147 147 148 132 144 142 144 154 161 155 154 159 162 163 167 177 183 186 195 170 178
117 239 225 202 268 269 260 282 101 340 306 294 272 267 273 264 246 267 285 291 289 291 297 304 293 244 259 270 267 264 267 278 287 272 268 263 259 259 243 217 211 197 186 164 142 175 191 200 200 187 186 160 152 154 145 122 122 127 123 145 152 155 152 149 145 140 145 146 152 148 153 155 160 155 151 152 160 156 136 21 2 15 170 190 206 220
213 250 255 248 248 271 332 302 208 249 269 275 288 266 259 270 243 276 277 276 273 247 275 285 299 314 295 285 267 266 264 268 277 267 263 266 266 256 233 207 194 199 186 162 161 190 199 187 176 174 174 155 151 145 141 138 141 146 159 164 168 166 161 155 149 141 144 151 163 165 154 147 152 159 155 151 145 151 153 151 181 220 234 277 177 205